Weather History for Szeged, Hungary

Change the Weather History Date:

Saturday, December 8, 2012

  Actual Average (LRAR) Record (LRAR)
Temperature  
Mean Temperature 27 °F -  
Max Temperature 28 °F 38 °F 59 °F (2006)
Min Temperature 24 °F 27 °F 15 °F (1998)
Degree Days  
Heating Degree Days 38    
Moisture  
Dew Point 24 °F    
Average Humidity 87    
Maximum Humidity 100    
Minimum Humidity 69    
Precipitation  
Precipitation 0.00 in 0.05 in - ()
Sea Level Pressure  
Sea Level Pressure 29.85 in    
Wind  
Wind Speed 15 mph ()    
Max Wind Speed 23 mph    
Max Gust Speed -    
Visibility 2.3 miles    
Events Snow    
Averages and records for this station are not official NWS values.
T = Trace of Precipitation, MM = Missing Value Source: Averaged Metar Reports

Daily Weather History Graph

Daily Weather History Graph

Search for Another Location

Airport:

Trip Planner

Search our weather history database for the weather conditions in past years. The results will help you decide how hot, cold, wet, or windy it might be!

Date:

Astronomy

Dec. 08, 2012 Rise Set
Actual Time 7:09 AM CET 3:53 PM CET
Civil Twilight 6:35 AM CET 4:27 PM CET
Nautical Twilight 5:57 AM CET 5:05 PM CET
Astronomical Twilight 5:20 AM CET 5:42 PM CET
Moon 12:58 AM CET (12/8) 12:27 PM CET (12/8)
Length of Visible Light 9h 52m
Length of Day
8h 43m
Waning Crescent, 31% of the Moon is Illuminated
Dec 8
Waning Crescent
Dec 13
New
Dec 20
First Quarter
Dec 28
Full
Jan 5
Last Quarter

Hourly Weather History & Observations

Time (CET) Temp. Windchill Dew Point Humidity Pressure Visibility Wind Dir Wind Speed Gust Speed Precip Events Conditions
12:45 AM 26.6 °F 19.1 °F 23.0 °F 86% 29.92 in - ENE 6.9 mph - N/A   Clear
1:45 AM 26.6 °F 16.2 °F 23.0 °F 86% 29.92 in - ENE 11.5 mph - N/A   Clear
2:45 AM 28.4 °F 18.5 °F 23.0 °F 80% 29.92 in - ENE 11.5 mph - N/A   Clear
3:45 AM 28.4 °F 19.1 °F 23.0 °F 80% 29.89 in - ENE 10.4 mph - N/A   Clear
4:45 AM 28.4 °F 18.0 °F 21.2 °F 74% 29.89 in - ENE 12.7 mph - N/A   Clear
5:15 AM 28.4 °F 15.8 °F 23.0 °F 80% 29.83 in - NE 18.4 mph - N/A   Clear
5:45 AM 28.4 °F 15.1 °F 23.0 °F 80% 29.83 in - NE 20.7 mph - N/A   Clear
6:15 AM 28.4 °F 15.1 °F 21.2 °F 74% 29.83 in - NE 20.7 mph - N/A   Clear
6:45 AM 28.4 °F 15.1 °F 21.2 °F 74% 29.83 in - NE 20.7 mph - N/A   Clear
7:00 AM 28 °F - 22 °F 69% 29.85 in 16 mi NE 20.1 mph - -   Partly Cloudy
7:15 AM 26.6 °F 13.8 °F 21.2 °F 80% 29.83 in - NE 17.3 mph - N/A   Clear
7:45 AM 28.4 °F 16.6 °F 21.2 °F 74% 29.83 in - NE 16.1 mph - N/A   Clear
8:15 AM 28.4 °F 17.5 °F 21.2 °F 74% 29.83 in - NE 13.8 mph - N/A   Clear
8:45 AM 28.4 °F 17.0 °F 21.2 °F 74% 29.86 in 6.2 mi NE 15.0 mph - N/A   Overcast
8:54 AM 28.4 °F 16.6 °F 21.2 °F 74% 29.86 in 6.2 mi NE 16.1 mph - N/A Snow Light Snow
9:15 AM 28.4 °F 17.5 °F 21.2 °F 74% 29.86 in 6.2 mi NE 13.8 mph - N/A Snow Light Snow
9:45 AM 28.4 °F 18.0 °F 23.0 °F 80% 29.83 in 6.2 mi NE 12.7 mph - N/A Snow Light Snow
10:15 AM 28.4 °F 17.0 °F 23.0 °F 80% 29.83 in 5.6 mi NNE 15.0 mph - N/A Snow Light Snow
10:45 AM 28.4 °F 17.5 °F 23.0 °F 80% 29.83 in 6.2 mi NNE 13.8 mph - N/A Snow Light Snow
11:13 AM 28.4 °F 15.8 °F 23.0 °F 80% 29.83 in - NNE 18.4 mph - N/A   Unknown
11:14 AM 28.4 °F 15.8 °F 23.0 °F 80% 29.83 in 4.3 mi NNE 18.4 mph - N/A Snow Light Snow
11:15 AM 28.4 °F 15.8 °F 23.0 °F 80% 29.83 in 4.3 mi NNE 18.4 mph - N/A Snow Light Snow
11:45 AM 28.4 °F 15.8 °F 24.8 °F 86% 29.83 in 1.6 mi NNE 18.4 mph - N/A Snow Light Snow
12:03 PM 28.4 °F 15.4 °F 24.8 °F 86% 29.83 in 0.6 mi NNE 19.6 mph - N/A Snow Snow
12:15 PM 26.6 °F 13.1 °F 24.8 °F 93% 29.80 in 0.5 mi NNE 19.6 mph - N/A Snow Snow
12:45 PM 26.6 °F 13.4 °F 26.6 °F 100% 29.80 in 0.6 mi NNE 18.4 mph - N/A Snow Snow
1:00 PM 27 °F - 26 °F 93% 29.83 in 1 mi NNE 17.9 mph - - Snow Snow
1:15 PM 26.6 °F 12.7 °F 26.6 °F 100% 29.80 in 0.6 mi NNE 20.7 mph - N/A Snow Snow
1:45 PM 26.6 °F 12.7 °F 24.8 °F 93% 29.80 in 0.9 mi NNE 20.7 mph - N/A Snow Snow
2:15 PM 26.6 °F 12.4 °F 24.8 °F 93% 29.80 in 0.7 mi NNE 21.9 mph - N/A Snow Snow
2:45 PM 26.6 °F 12.0 °F 24.8 °F 93% 29.83 in 0.6 mi NNE 23.0 mph - N/A Snow Snow
3:11 PM 26.6 °F 12.0 °F 24.8 °F 93% 29.83 in 0.4 mi NNE 23.0 mph - N/A Snow Snow
3:15 PM 26.6 °F 12.0 °F 24.8 °F 93% 29.83 in 0.4 mi NNE 23.0 mph - N/A Snow Snow
3:45 PM 26.6 °F 12.4 °F 24.8 °F 93% 29.83 in 0.6 mi NNE 21.9 mph - N/A Snow Snow
4:15 PM 26.6 °F 12.4 °F 24.8 °F 93% 29.83 in 0.4 mi NNE 21.9 mph - N/A Snow Snow
4:45 PM 26.6 °F 12.4 °F 26.6 °F 100% 29.83 in 0.6 mi NNE 21.9 mph - N/A Snow Snow
5:15 PM 26.6 °F 12.4 °F 24.8 °F 93% 29.83 in 0.5 mi NNE 21.9 mph - N/A Snow Snow
5:45 PM 26.6 °F 12.7 °F 24.8 °F 93% 29.83 in 0.6 mi NNE 20.7 mph - N/A Snow Snow
6:15 PM 26.6 °F 13.1 °F 26.6 °F 100% 29.86 in 0.8 mi North 19.6 mph - N/A Snow Light Snow
6:45 PM 26.6 °F 13.1 °F 26.6 °F 100% 29.86 in 0.9 mi North 19.6 mph - N/A Snow Light Snow
7:00 PM 27 °F - 26 °F 93% 29.88 in 1 mi North 20.1 mph - - Snow Light Snow
7:15 PM 26.6 °F 13.1 °F 24.8 °F 93% 29.86 in 0.9 mi North 19.6 mph - N/A Snow Light Snow
7:45 PM 26.6 °F 13.1 °F 24.8 °F 93% 29.89 in 0.9 mi North 19.6 mph - N/A Snow Light Snow
8:15 PM 26.6 °F 13.4 °F 24.8 °F 93% 29.89 in 0.9 mi North 18.4 mph - N/A Snow Light Snow
8:45 PM 26.6 °F 13.1 °F 24.8 °F 93% 29.89 in 0.9 mi North 19.6 mph - N/A Snow Light Snow
9:45 PM 26.6 °F 13.4 °F 24.8 °F 93% 29.89 in 0.9 mi North 18.4 mph - N/A Snow Light Snow
10:45 PM 26.6 °F 12.7 °F 24.8 °F 93% 29.89 in 0.9 mi North 20.7 mph - N/A Snow Light Snow
11:45 PM 24.8 °F 10.3 °F 24.8 °F 100% 29.89 in 0.9 mi North 20.7 mph - N/A Snow Light Snow